BAW846W EGLL-EPWA

Flight info

Callsign BAW846W
Flight time N/A
Altitude 37000
Route BPK Q295 MATCH DCT REDFA DCT TACHA DCT GARLU DCT ALUKA DCT EKBUT L619 DENKO P851 BIMPA
Aircraft A21N/M-SDE2E3FGHIJ1RWXYZ/SB1G1

Departure

Time 2026-05-06 22:34
Airport London Heathrow Airport (EGLL)

Arrival

Time N/A
Airport Warsaw Chopin Airport (EPWA)
Time Latitude Longitude Altitude Speed Heading
2026-05-06 21:55 51.47290 -0.47999 92 ft 0 kts 273°
2026-05-06 22:17 51.47290 -0.47989 92 ft 4 kts 273°
2026-05-06 22:17 51.47288 -0.47946 93 ft 4 kts 273°
2026-05-06 22:17 51.47287 -0.47911 93 ft 4 kts 267°
2026-05-06 22:18 51.47295 -0.47879 94 ft 4 kts 212°
2026-05-06 22:18 51.47317 -0.47872 92 ft 4 kts 180°
2026-05-06 22:18 51.47335 -0.47872 92 ft 0 kts 180°
2026-05-06 22:23 51.47327 -0.47872 91 ft 2 kts 180°
2026-05-06 22:23 51.47302 -0.47872 91 ft 5 kts 180°
2026-05-06 22:23 51.47261 -0.47871 91 ft 7 kts 180°
2026-05-06 22:24 51.47205 -0.47871 91 ft 9 kts 180°
2026-05-06 22:24 51.47134 -0.47871 91 ft 11 kts 180°
2026-05-06 22:24 51.47056 -0.47870 91 ft 12 kts 180°
2026-05-06 22:24 51.46976 -0.47869 91 ft 12 kts 180°
2026-05-06 22:25 51.46919 -0.47869 91 ft 7 kts 179°
2026-05-06 22:25 51.46874 -0.47869 91 ft 3 kts 180°
2026-05-06 22:25 51.46849 -0.47868 91 ft 5 kts 179°
2026-05-06 22:25 51.46827 -0.47868 91 ft 2 kts 179°
2026-05-06 22:26 51.46823 -0.47868 91 ft 0 kts 179°
2026-05-06 22:28 51.46821 -0.47868 92 ft 1 kts 179°
2026-05-06 22:29 51.46800 -0.47868 91 ft 4 kts 179°
2026-05-06 22:29 51.46762 -0.47875 92 ft 7 kts 211°
2026-05-06 22:29 51.46743 -0.47986 92 ft 10 kts 270°
2026-05-06 22:29 51.46743 -0.48063 92 ft 11 kts 270°
2026-05-06 22:30 51.46744 -0.48196 92 ft 13 kts 270°
2026-05-06 22:30 51.46743 -0.48338 92 ft 8 kts 269°
2026-05-06 22:30 51.46741 -0.48419 92 ft 8 kts 258°
2026-05-06 22:30 51.46706 -0.48469 92 ft 7 kts 188°
2026-05-06 22:31 51.46653 -0.48467 92 ft 4 kts 180°
2026-05-06 22:31 51.46639 -0.48468 92 ft 3 kts 181°
2026-05-06 22:31 51.46628 -0.48468 92 ft 2 kts 181°
2026-05-06 22:31 51.46614 -0.48468 92 ft 2 kts 180°
2026-05-06 22:32 51.46591 -0.48468 92 ft 4 kts 180°
2026-05-06 22:32 51.46554 -0.48468 92 ft 7 kts 179°
2026-05-06 22:32 51.46506 -0.48467 92 ft 7 kts 177°
2026-05-06 22:32 51.46478 -0.48416 92 ft 7 kts 98°
2026-05-06 22:33 51.46479 -0.48196 94 ft 47 kts 89°
2026-05-06 22:33 51.46483 -0.47312 92 ft 110 kts 89°
2026-05-06 22:33 51.46488 -0.45794 91 ft 160 kts 89°
2026-05-06 22:33 51.46487 -0.43949 519 ft 163 kts 89°
2026-05-06 22:34 51.46494 -0.42140 1134 ft 160 kts 86°
2026-05-06 22:34 51.46767 -0.40444 1712 ft 161 kts 55°
2026-05-06 22:34 51.47522 -0.39111 2421 ft 163 kts 46°
2026-05-06 22:34 51.48273 -0.37756 3166 ft 167 kts 49°
2026-05-06 22:35 51.49089 -0.36241 3744 ft 188 kts 49°
2026-05-06 22:35 51.49992 -0.34533 4209 ft 216 kts 49°
2026-05-06 22:35 51.51030 -0.32579 4639 ft 243 kts 49°
2026-05-06 22:35 51.52075 -0.30324 5298 ft 259 kts 61°
2026-05-06 22:36 51.52765 -0.27616 6138 ft 265 kts 69°
2026-05-06 22:36 51.53357 -0.24876 6978 ft 270 kts 70°
2026-05-06 22:36 51.53977 -0.22031 7867 ft 274 kts 69°
2026-05-06 22:36 51.54654 -0.19166 8751 ft 279 kts 64°
2026-05-06 22:37 51.55847 -0.16654 9573 ft 282 kts 35°
2026-05-06 22:37 51.57642 -0.15383 10335 ft 289 kts 11°
2026-05-06 22:37 51.59705 -0.15249 10734 ft 309 kts 351°
2026-05-06 22:37 51.61880 -0.16021 11081 ft 331 kts 348°
2026-05-06 22:38 51.64224 -0.15953 11610 ft 345 kts 12°
2026-05-06 22:38 51.66549 -0.14875 12393 ft 350 kts 17°
2026-05-06 22:38 51.68875 -0.13651 13187 ft 354 kts 17°
2026-05-06 22:38 51.71207 -0.12311 13938 ft 359 kts 24°
2026-05-06 22:39 51.73297 -0.10076 14649 ft 366 kts 42°
2026-05-06 22:39 51.74845 -0.06857 15336 ft 372 kts 61°
2026-05-06 22:39 51.75695 -0.02897 16017 ft 378 kts 79°
2026-05-06 22:39 51.76043 0.01329 16686 ft 383 kts 83°
2026-05-06 22:40 51.76339 0.05623 17323 ft 387 kts 83°
2026-05-06 22:40 51.76659 0.09964 17939 ft 392 kts 82°
2026-05-06 22:40 51.77003 0.14350 18530 ft 396 kts 82°
2026-05-06 22:40 51.77368 0.18768 19120 ft 399 kts 81°
2026-05-06 22:41 51.78324 0.27670 20236 ft 406 kts 75°
2026-05-06 22:41 51.79036 0.32107 20775 ft 410 kts 75°
2026-05-06 22:41 51.79758 0.36568 21303 ft 413 kts 75°
2026-05-06 22:42 51.80482 0.41079 21822 ft 416 kts 75°
2026-05-06 22:42 51.81205 0.45626 22323 ft 419 kts 75°
2026-05-06 22:42 51.81935 0.50210 22813 ft 423 kts 75°
2026-05-06 22:42 51.82657 0.54772 23300 ft 427 kts 75°
2026-05-06 22:43 51.83153 0.57919 23633 ft 429 kts 75°